Regional Weather Roundup
Issued by NWS

Home | Current Version | Previous Version | Graphics & Text | Print | Product List | Glossary Off
Versions: 1 2 3 4 5 6 7 8 9 10 11 12 13 14 15 16 17 18 19 20 21 22 23 24 25 26 27 28 29 30 31 32 33 34 35 36 37 38 39 40 41 42 43 44 45 46 47 48 49 50

000
ASUS43 KMKX 211059
RWRWI

WISCONSIN REGIONAL WEATHER ROUNDUP
NATIONAL WEATHER SERVICE MILWAUKEE/SULLIVAN WI
500 AM CST WED FEB 21 2018

NOTE: "FAIR" INDICATES FEW OR NO CLOUDS BELOW 12,000 FEET WITH NO
SIGNIFICANT WEATHER AND/OR OBSTRUCTIONS TO VISIBILITY.

WIZ001-002-006>008-014>016-023>028-211200-
NORTHWEST WISCONSIN

CITY           SKY/WX    TMP DP  RH WIND       PRES   REMARKS
SUPERIOR ARPT  FAIR      -1  -5  82 SW6       30.42R WCI -12
ASHLAND        FAIR       2  -4  76 SW10      30.40R WCI -14
HAYWARD        FAIR       1  -3  83 SW5       30.39R WCI  -9
SIREN          FAIR       0  -4  82 W8        30.43R WCI -14
CUMBERLAND     FAIR      -4  -8  84 W5        30.40R WCI -15
RICE LAKE      FAIR      -1  -4  86 CALM      30.44R
CHETEK         FAIR       3  -1  82 MISG      30.43R
LADYSMITH      FAIR       3  -1  83 W5        30.40R WCI  -6
EAU CLAIRE     NOT AVBL
MENOMONIE      FAIR       5   0  79 W3        30.47R
NEW RICHMOND   FAIR      -2  -7  80 SW3       30.46R
OSCEOLA        FAIR       2  -2  83 W8        30.49R WCI -12
$$

WIZ003>005-009-010-017-018-211200-
NORTH CENTRAL WISCONSIN

CITY           SKY/WX    TMP DP  RH WIND       PRES   REMARKS
MANITOWISH WTR FLURRIES   4   2  90 W6        30.29R WCI  -7
ARBOR VITAE    FAIR       6   3  86 NW6       30.30R WCI  -4
WOODRUFF       FAIR       6   3  86 NW6       30.30R WCI  -4
RHINELANDER    FAIR       6   3  87 W9        30.31R WCI  -8
EAGLE RIVER    FAIR       7   2  82 W7        30.28R WCI  -5
LAND O LAKES   FLURRIES   9   6  85 W9        30.29R WCI  -4
PHILLIPS       FAIR       4   1  88 CALM      30.34R
TOMAHAWK       FAIR       4   1  87 W5        30.33R WCI  -5
MEDFORD        FAIR       6   2  84 W7        30.34R WCI  -6
MERRILL        FAIR       9   5  84 W5        30.36R WCI   1
$$

WIZ029-030-035-036-043>047-211200-
CENTRAL WISCONSIN

CITY           SKY/WX    TMP DP  RH WIND       PRES   REMARKS
WAUSAU         FAIR       9   6  88 W9        30.36R WCI  -4
MOSINEE        FAIR      12   9  85 W9        30.37R WCI   0
MARSHFIELD     FAIR       8   3  80 W8        30.38R WCI  -4
STEVENS POINT  FAIR      11   8  85 W5        30.38R WCI   3
WAUPACA        FAIR      19  11  72 W8        30.39R WCI   9
WAUTOMA        FAIR      16  11  80 NW9       30.42R WCI   4
WISC RAPIDS    FAIR      12   6  77 NW6       30.42R WCI   3
CAMP DOUGLAS   FLURRIES  14  10  85 NW6       30.44R WCI   5
$$

WIZ011>013-019>022-031-037>040-048>050-211200-
NORTHEAST WISCONSIN

CITY           SKY/WX    TMP DP  RH WIND       PRES   REMARKS
ANTIGO         FAIR      10   6  85 W7        30.31R WCI  -2
SHAWANO        FAIR      19  12  74 NW6       30.37R WCI  10
OCONTO         FAIR      19  13  76 NW7       30.35R WCI  10
STURGEON BAY   FAIR      20  14  77 NW10      30.35R WCI   9
GREEN BAY      FAIR      20  12  71 NW13      30.38R WCI   7
MANITOWOC      FAIR      22  16  78 NW14G20   30.36R WCI   9
APPLETON       FAIR      19  10  68 NW10      30.34R WCI   8
CLINTONVILLE   FAIR      17  10  72 NW7       30.39R WCI   8
OSHKOSH        FAIR      19  11  70 NW14G20   30.38R WCI   6
$$

WIZ032>034-041-042-053>061-211200-
SOUTHWEST WISCONSIN

CITY           SKY/WX    TMP DP  RH WIND       PRES   REMARKS
LA CROSSE      FAIR      12   5  73 NW12      30.50R WCI  -2
SPARTA         FAIR      13  10  85 NW6       30.46R WCI   4
VIROQUA        CLOUDY    12  10  92 NW6       30.41R WCI   3
BOSCOBEL       FAIR      17  10  74 NW8       30.48R WCI   7
PRAIRIE DU CHI FAIR      15   8  72 NW9       30.48R WCI   3
PLATTEVILLE    FAIR      18  15  88 NW10      30.43R WCI   6
$$

WIZ056-057-062-063-064-067-068-211200-
SOUTH CENTRAL WISCONSIN

CITY           SKY/WX    TMP DP  RH WIND       PRES   REMARKS
REEDSBURG      FAIR      16  11  80 NW7       30.43R WCI   7
BARABOO/DELLS  FAIR      18  11  75 NW6       30.40R WCI   9
LONE ROCK      NOT AVBL
MINERAL POINT  FAIR      19  19 100 NW9       30.40R WCI   9
MADISON        FAIR      20  13  74 N8        30.42R WCI  10
MIDDLETON      CLOUDY    24  18  78 NW13      30.40R WCI  12
WATERTOWN      FAIR      21  15  77 NW9       30.38R WCI  11
MONROE         CLOUDY    23  18  80 NW10      30.38R WCI  12
JANESVILLE     FAIR      27  18  69 N9        30.40R WCI  17
$$

WIZ051-052-058>065-066-070>072-211200-
SOUTHEAST WISCONSIN

CITY           SKY/WX    TMP DP  RH WIND       PRES   REMARKS
MILWAUKEE      CLOUDY    26  15  63 NW8       30.38R WCI  18
WAUKESHA       CLOUDY    21  16  79 NW10      30.37R WCI  10
MILWAUKEE/TIMM CLOUDY    23  14  68 NW12      30.37R WCI  12
RACINE         MOCLDY    26  18  71 NW13      30.39R WCI  15
BURLINGTON     MOCLDY    24  17  76 NW12      30.38R WCI  13
KENOSHA        CLOUDY    27  20  75 NW15      30.38R WCI  15
FOND DU LAC    FAIR      20  11  68 NW14      30.39R WCI   7
SHEBOYGAN      FAIR      22  14  71 NW14      30.36R WCI   9
WEST BEND      FAIR      21  18  86 NW10G17   30.35R WCI  10
JUNEAU         FAIR      20  13  75 NW14      30.39R WCI   6
$$

LSZ147-162-211200-
LAKE SUPERIOR

STATION/POSITION TIME  TEMP    WIND        PRES    WAVE
                       AIR SEA DIR/SP/G            HT/PER
                 (UTC) (F)     (DEG/KT/KT) (MB)    (FT/S)
DEVILS ISLAND    1000   13     270/ 12/ 16 1029.0R
SAXON HARBOR     1040    7     210/  8/ 13 1029.1R
$$

LMZ867-665-643>646-211200-
LAKE MICHIGAN

STATION/POSITION TIME  TEMP    WIND        PRES    WAVE
                       AIR SEA DIR/SP/G            HT/PER
                 (UTC) (F)     (DEG/KT/KT) (MB)    (FT/S)
NORTHPORT PIER   1040   21                 1026.8R
KEWAUNEE LAKESHO 1024   23     320/ 12/ 16 1026.1
SHEBOYGAN LAKESH 1000   24     300/ 14/ 16 1027.6R
PORT WASHINGTON  1030   24     300/ 10/ 14 1028.8R
MILWAUKEE LAKESH 1030   25     310/  8/ 11   N/A
KENOSHA   LAKESH 1000   28     320/ 17/ 20 1026.1
$$

TC  - TEMPERATURE IN CELSIUS
VSB - VISIBILITY IN STATUTE MILES
WCI - WIND CHILL INDEX
HX  - HEAT INDEX




USA.gov is the U.S. government's official web portal to all federal, state and local government web resources and services.